Weather in Zelene

Ukraine / Dnipropetrovsk Region     48°30′33″N   33°30′14″E
temp.,
°C
wind,
m/s
gust,
m/s
humid.,
%
clouds,
%
prec.,
mm/h
press.,
hPa
HPBL,
m
14 april, wed
wed1400:00+10s2578100 0.0 1020180
03:00+9s238579 0.1 1019121
06:00+7sse229260 0.0 101928
09:00+11se237751 0.0 1018474
12:00+14se335876 0.2 10161346
15:00+14ese4456100 0.3 10151154
18:00+13ese466489 0.0 1014532
21:00+11ese366856 0.0 1014139
15 april, thu
thu1500:00+8se3779100 0.0 1014186
03:00+8se3580100 0.0 1013193
06:00+8se4785100 0.0 1013353
09:00+8sse4893100 0.4 1012444
12:00+10sse4784100 0.4 1012686
15:00+11s4664100 1.7 10111101
18:00+10s6876100 1.3 1011700
21:00+9ssw578096 1.6 1012558
16 april, fri
fri1600:00+6sse3791100 0.0 1012374
03:00+7sse3693100 0.1 1012380
06:00+6s489584 0.0 1012332
09:00+7s5888100 0.0 1013628
12:00+7s5892100 0.4 1014548
15:00+7ssw588493 0.6 1015797
18:00+8sw467795 0.1 1015562
21:00+6wsw3589100 0.1 1017364
17 april, sat
sat1700:00+5sw3386100 0.0 1018517
03:00+5sw2389100 0.1 1018256
06:00+5sw2391100 0.0 1019257
09:00+6w228797 0.1 1020429
12:00+8w3373100 0.0 1021889
15:00+9wnw2372100 0.1 1021661
18:00+9nw2371100 0.1 1021657
21:00+8w237992 0.1 102169
18 april, sun
sun1800:00+6wnw248333 0.0 102195
03:00+5wsw228342 0.0 102013
06:00+6w117793 0.0 102012
09:00+8w1167100 0.0 1020189
12:00+10nne1158100 0.0 1021751
15:00+12nne225068 0.0 10211476
18:00+12ne335443 0.0 1021820
21:00+8ne22675 0.0 102221